Big Rapids, MI

2:59 AM EDT on July 25, 2016 (GMT -0400)
Roben-Hood

Weather History for KRQB - October, 2012

Change the Weather History Date:

Monday, October 8, 2012

  Actual Average Record
Temperature  
Mean Temperature 39 °F -  
Max Temperature 55 °F 61 °F 84 °F (2007)
Min Temperature 23 °F 39 °F 23 °F (2001)
Degree Days  
Heating Degree Days 26    
Moisture  
Dew Point 26 °F    
Average Humidity 62    
Maximum Humidity 95    
Minimum Humidity 30    
Precipitation  
Precipitation 0.00 in - - ()
Sea Level Pressure  
Sea Level Pressure 30.06 in    
Wind  
Wind Speed 4 mph (South)    
Max Wind Speed 20 mph    
Max Gust Speed 30 mph    
Visibility 10 miles    
Events      
Averages and records for this station are not official NWS values.
T = Trace of Precipitation, MM = Missing Value Source: NWS Daily Summary

Daily Weather History Graph

Daily Weather History Graph

Search for Another Location

Airport or City:

Trip Planner

Search our weather history database for the weather conditions in past years. The results will help you decide how hot, cold, wet, or windy it might be!

Date:

Astronomy

Oct. 08, 2012 Rise Set
Actual Time 7:48 AM EDT 7:09 PM EDT
Civil Twilight 7:19 AM EDT 7:38 PM EDT
Nautical Twilight 6:46 AM EDT 8:11 PM EDT
Astronomical Twilight 6:12 AM EDT 8:44 PM EDT
Moon 12:14 AM EDT (10/8) 3:10 PM EDT (10/8)
Length of Visible Light 12h 18m
Length of Day
11h 21m
Waning Gibbous, 46% of the Moon is Illuminated
Oct 8
Waning Gibbous
Oct 15
New
Oct 21
First Quarter
Oct 29
Full
Nov 6
Last Quarter

Hourly Weather History & Observations

Time (EDT) Temp. Windchill Dew Point Humidity Pressure Visibility Wind Dir Wind Speed Gust Speed Precip Events Conditions
12:14 AM 28.6 °F - 25.7 °F 89% 30.10 in 10.0 mi Calm Calm - N/A   Clear
12:35 AM 28.0 °F - 26.1 °F 92% 30.10 in 10.0 mi Calm Calm - N/A   Clear
12:55 AM 28.0 °F - 25.7 °F 91% 30.09 in 10.0 mi Calm Calm - N/A   Clear
1:14 AM 27.3 °F - 25.2 °F 92% 30.09 in 10.0 mi Calm Calm - N/A   Clear
1:35 AM 27.0 °F - 25.3 °F 94% 30.08 in 10.0 mi Calm Calm - N/A   Clear
1:55 AM 27.3 °F - 25.7 °F 94% 30.09 in 10.0 mi Calm Calm - N/A   Clear
2:14 AM 27.1 °F - 25.3 °F 93% 30.09 in 10.0 mi Calm Calm - N/A   Clear
2:35 AM 26.6 °F - 25.0 °F 94% 30.09 in 10.0 mi Calm Calm - N/A   Clear
2:55 AM 26.8 °F - 25.0 °F 93% 30.09 in 10.0 mi Calm Calm - N/A   Clear
3:14 AM 26.4 °F - 24.1 °F 91% 30.08 in 10.0 mi Calm Calm - N/A   Clear
3:35 AM 25.7 °F - 23.7 °F 92% 30.08 in 10.0 mi Calm Calm - N/A   Clear
3:55 AM 25.7 °F - 23.9 °F 93% 30.08 in 10.0 mi Calm Calm - N/A   Clear
4:14 AM 26.6 °F - 25.0 °F 94% 30.08 in 10.0 mi Calm Calm - N/A   Clear
4:35 AM 25.9 °F - 24.1 °F 93% 30.08 in 10.0 mi Calm Calm - N/A   Clear
4:54 AM 26.1 °F - 24.1 °F 92% 30.08 in 10.0 mi Calm Calm - N/A   Clear
5:14 AM 25.5 °F - 23.5 °F 92% 30.08 in 10.0 mi Calm Calm - N/A   Clear
5:35 AM 25.2 °F - 23.2 °F 92% 30.08 in 10.0 mi Calm Calm - N/A   Clear
5:54 AM 25.0 °F - 23.2 °F 93% 30.08 in 10.0 mi Calm Calm - N/A   Clear
6:14 AM 25.2 °F - 23.0 °F 91% 30.08 in 10.0 mi Calm Calm - N/A   Clear
6:35 AM 25.5 °F - 23.4 °F 92% 30.08 in 10.0 mi Calm Calm - N/A   Clear
6:54 AM 24.8 °F - 22.8 °F 92% 30.08 in 10.0 mi Calm Calm - N/A   Clear
7:15 AM 24.8 °F - 22.8 °F 92% 30.09 in 10.0 mi Calm Calm - N/A   Clear
7:35 AM 23.9 °F - 22.1 °F 93% 30.09 in 7.0 mi Calm Calm - N/A   Clear
7:54 AM 24.6 °F - 23.0 °F 94% 30.10 in 10.0 mi Calm Calm - N/A   Clear
8:15 AM 24.8 °F - 23.0 °F 93% 30.10 in 10.0 mi Calm Calm - N/A   Clear
8:35 AM 26.4 °F - 24.6 °F 93% 30.10 in 10.0 mi Calm Calm - N/A   Clear
8:54 AM 30.2 °F - 28.9 °F 95% 30.11 in 10.0 mi Calm Calm - N/A   Clear
9:15 AM 34.3 °F 29.2 °F 32.0 °F 91% 30.11 in 10.0 mi South 5.8 mph - N/A   Clear
9:35 AM 36.9 °F 31.4 °F 31.6 °F 81% 30.11 in 10.0 mi South 6.9 mph - N/A   Clear
9:54 AM 39.7 °F 35.6 °F 30.6 °F 70% 30.11 in 10.0 mi South 5.8 mph - N/A   Clear
10:15 AM 42.4 °F 38.1 °F 30.7 °F 63% 30.11 in 10.0 mi South 6.9 mph - N/A   Clear
10:35 AM 44.8 °F 41.0 °F 30.7 °F 58% 30.11 in 10.0 mi South 6.9 mph - N/A   Clear
10:54 AM 46.6 °F - 30.0 °F 53% 30.10 in 10.0 mi South 8.1 mph - N/A   Clear
11:15 AM 49.6 °F - 29.7 °F 46% 30.09 in 10.0 mi SSW 12.7 mph 18.4 mph N/A   Clear
11:35 AM 50.9 °F - 29.5 °F 44% 30.09 in 10.0 mi SSW 9.2 mph 18.4 mph N/A   Clear
11:54 AM 52.3 °F - 29.7 °F 42% 30.09 in 10.0 mi South 15.0 mph 19.6 mph N/A   Clear
12:15 PM 53.6 °F - 29.3 °F 39% 30.08 in 10.0 mi South 19.6 mph 24.2 mph N/A   Scattered Clouds
12:35 PM 53.4 °F - 28.6 °F 38% 30.08 in 10.0 mi SSW 15.0 mph 24.2 mph N/A   Mostly Cloudy
12:54 PM 54.9 °F - 27.3 °F 35% 30.08 in 10.0 mi SSW 13.8 mph 23.0 mph N/A   Mostly Cloudy
1:15 PM 52.9 °F - 27.9 °F 38% 30.08 in 10.0 mi SSW 17.3 mph 24.2 mph N/A   Overcast
1:54 PM 53.6 °F - 27.5 °F 37% 30.06 in 10.0 mi WSW 12.7 mph 20.7 mph N/A   Overcast
2:15 PM 55.8 °F - 27.0 °F 33% 30.06 in 10.0 mi SSW 16.1 mph 24.2 mph N/A   Mostly Cloudy
2:35 PM 53.6 °F - 29.1 °F 39% 30.05 in 10.0 mi SSW 12.7 mph 23.0 mph N/A   Overcast
2:54 PM 54.1 °F - 29.5 °F 39% 30.04 in 10.0 mi SSW 17.3 mph 23.0 mph N/A   Overcast
3:15 PM 53.2 °F - 29.8 °F 41% 30.04 in 10.0 mi SSW 17.3 mph 23.0 mph N/A   Overcast
3:35 PM 53.8 °F - 29.5 °F 39% 30.04 in 10.0 mi SSW 16.1 mph 29.9 mph N/A   Overcast
3:54 PM 54.5 °F - 29.3 °F 38% 30.03 in 10.0 mi SSW 17.3 mph 27.6 mph N/A   Overcast
4:15 PM 54.9 °F - 28.0 °F 36% 30.03 in 10.0 mi SW 13.8 mph 23.0 mph N/A   Mostly Cloudy
4:35 PM 54.5 °F - 28.6 °F 37% 30.02 in 10.0 mi SW 13.8 mph 23.0 mph N/A   Mostly Cloudy
4:54 PM 55.2 °F - 26.6 °F 33% 30.02 in 10.0 mi SW 17.3 mph 23.0 mph N/A   Mostly Cloudy
5:15 PM 54.1 °F - 25.3 °F 33% 30.01 in 10.0 mi SSW 15.0 mph 21.9 mph N/A   Scattered Clouds
5:35 PM 54.5 °F - 23.9 °F 31% 30.01 in 10.0 mi SSW 16.1 mph 23.0 mph N/A   Clear
5:54 PM 54.1 °F - 23.0 °F 30% 30.01 in 10.0 mi SSW 12.7 mph 23.0 mph N/A   Clear
6:15 PM 53.4 °F - 22.6 °F 30% 30.01 in 10.0 mi SSW 15.0 mph 20.7 mph N/A   Clear
6:34 PM 52.3 °F - 23.0 °F 32% 30.01 in 10.0 mi SSW 9.2 mph 16.1 mph N/A   Clear
6:55 PM 50.9 °F - 23.2 °F 34% 30.01 in 10.0 mi SSW 4.6 mph - N/A   Clear
7:15 PM 49.6 °F - 23.0 °F 35% 30.01 in 10.0 mi South 5.8 mph - N/A   Clear
7:34 PM 48.4 °F - 23.4 °F 37% 30.01 in 10.0 mi South 3.5 mph - N/A   Clear
7:55 PM 48.2 °F - 23.9 °F 39% 30.01 in 10.0 mi South 5.8 mph - N/A   Clear
8:15 PM 46.2 °F - 24.8 °F 43% 30.01 in 10.0 mi Calm Calm - N/A   Clear
8:34 PM 45.1 °F 42.8 °F 25.7 °F 47% 30.01 in 10.0 mi SSE 4.6 mph - N/A   Clear
8:55 PM 46.4 °F 44.3 °F 26.1 °F 45% 30.01 in 10.0 mi SSE 4.6 mph - N/A   Clear
9:15 PM 46.4 °F 43.5 °F 26.1 °F 45% 30.01 in 10.0 mi SSE 5.8 mph - N/A   Clear
9:34 PM 47.1 °F - 25.3 °F 43% 30.01 in 10.0 mi South 8.1 mph - N/A   Clear
9:55 PM 47.3 °F - 25.2 °F 42% 30.01 in 10.0 mi South 8.1 mph - N/A   Clear
10:15 PM 47.8 °F - 25.0 °F 41% 29.99 in 10.0 mi South 11.5 mph 20.7 mph N/A   Clear
10:34 PM 48.2 °F - 24.8 °F 40% 29.99 in 10.0 mi South 8.1 mph 20.7 mph N/A   Clear
10:55 PM 48.2 °F - 24.8 °F 40% 30.00 in 10.0 mi South 9.2 mph 20.7 mph N/A   Mostly Cloudy
11:15 PM 48.2 °F - 24.8 °F 40% 30.00 in 10.0 mi South 9.2 mph 20.7 mph N/A   Scattered Clouds
11:55 PM 47.3 °F - 25.2 °F 42% 29.99 in 10.0 mi South 10.4 mph - N/A   Clear